QPF
0.00 0.00 0.00 0.00 0.00 0.00 0.00 0.00 0.00 0.00 0.00 0.00 0.00 0.00 0.00 0.00 0.00 0.00 0.00 0.00 0.00 0.00 0.00 0.00 0.00 0.00 0.00 0.00 0.00 0.00 0.00 0.00 0.00 0.00 0.00 0.01 0.02 0.03 0.02 0.02 0.09 0.06 0.01 0.00 0.00 0.00 0.00
0.00 0.00 0.00 0.00 0.00 0.00 0.00 0.00 0.00 0.00 0.00 0.00 0.00 0.00 0.00 0.00 0.00 0.00 0.00 0.00 0.00 0.00 0.00 0.00 0.00 0.00 0.00 0.00 0.00 0.00 0.00 0.00 0.00 0.00 0.00 0.00 0.01 0.01 0.01 0.02 0.04 0.04 0.06 0.01 0.00 0.00 0.00
0.00 0.00 0.00 0.00 0.00 0.00 0.00 0.00 0.00 0.00 0.00 0.00 0.00 0.00 0.00 0.00 0.00 0.00 0.00 0.00 0.00 0.00 0.00 0.00 0.00 0.00 0.00 0.00 0.00 0.00 0.00 0.00 0.00 0.00 0.00 0.00 0.01 0.03 0.02 0.01 0.01 0.07 0.07 0.03 0.01 0.00 0.00
0.00 0.00 0.00 0.00 0.00 0.00 0.00 0.00 0.00 0.00 0.00 0.00 0.00 0.00 0.00 0.00 0.00 0.00 0.00 0.00 0.00 0.00 0.00 0.00 0.00 0.00 0.00 0.00 0.00 0.00 0.00 0.00 0.00 0.00 0.00 0.00 0.00 0.01 0.01 0.01 0.01 0.08 0.07 0.01 0.00 0.00 0.00
0.00 0.00 0.00 0.00 0.00 0.00 0.00 0.00 0.00 0.00 0.00 0.00 0.00 0.00 0.00 0.00 0.00 0.00 0.00 0.00 0.00 0.00 0.00 0.00 0.00 0.00 0.00 0.00 0.00 0.00 0.00 0.00 0.00 0.00 0.00 0.00 0.00 0.01 0.02 0.04 0.02 0.02 0.03 0.00 0.00 0.00 0.00
0.00 0.00 0.00 0.00 0.00 0.00 0.00 0.00 0.00 0.00 0.00 0.00 0.00 0.00 0.00 0.00 0.00 0.00 0.00 0.00 0.00 0.00 0.00 0.00 0.00 0.00 0.00 0.00 0.00 0.00 0.00 0.00 0.01 0.01 0.00 0.00 0.01 0.01 0.01 0.03 0.01 0.00 0.00 0.00 0.00 0.00 0.00
0.00 0.00 0.00 0.00 0.00 0.00 0.00 0.00 0.00 0.00 0.00 0.00 0.00 0.00 0.00 0.00 0.00 0.00 0.00 0.00 0.00 0.00 0.00 0.00 0.00 0.00 0.00 0.00 0.00 0.00 0.00 0.00 0.01 0.02 0.01 0.00 0.01 0.01 0.00 0.01 0.00 0.00 0.00 0.00 0.00 0.00 0.00
0.00 0.00 0.00 0.00 0.00 0.00 0.00 0.00 0.00 0.00 0.00 0.00 0.00 0.00 0.00 0.00 0.00 0.00 0.00 0.00 0.00 0.00 0.00 0.00 0.00 0.00 0.00 0.00 0.00 0.00 0.00 0.00 0.00 0.01 0.01 0.01 0.00 0.00 0.00 0.01 0.00 0.00 0.00 0.00 0.00 0.00 0.00
0.00 0.00 0.00 0.00 0.00 0.00 0.00 0.00 0.00 0.00 0.00 0.00 0.00 0.00 0.00 0.00 0.00 0.00 0.00 0.00 0.00 0.00 0.00 0.00 0.00 0.00 0.00 0.00 0.00 0.00 0.00 0.00 0.00 0.00 0.00 0.01 0.00 0.00 0.00 0.00 0.01 0.00 0.00 0.00 0.00 0.00 0.00
0.00 0.00 0.00 0.00 0.00 0.00 0.00 0.00 0.00 0.00 0.00 0.00 0.00 0.00 0.00 0.00 0.00 0.00 0.00 0.00 0.00 0.00 0.01 0.00 0.00 0.00 0.00 0.00 0.00 0.00 0.00 0.00 0.00 0.02 0.01 0.01 0.00 0.00 0.00 0.00 0.01 0.00 0.00 0.00 0.00 0.00 0.00
0.00 0.00 0.00 0.00 0.00 0.00 0.00 0.00 0.00 0.00 0.00 0.00 0.00 0.00 0.00 0.00 0.00 0.00 0.00 0.00 0.00 0.00 0.00 0.00 0.00 0.00 0.00 0.00 0.00 0.00 0.00 0.00 0.00 0.00 0.00 0.01 0.00 0.00 0.00 0.00 0.00 0.01 0.00 0.00 0.00 0.00 0.00
0.00 0.00 0.00 0.00 0.00 0.00 0.00 0.00 0.00 0.00 0.00 0.00 0.00 0.00 0.00 0.00 0.00 0.00 0.00 0.00 0.00 0.00 0.00 0.00 0.00 0.00 0.00 0.00 0.00 0.00 0.00 0.00 0.00 0.00 0.00 0.00 0.01 0.01 0.00 0.00 0.00 0.01 0.01 0.00 0.00 0.00 0.00
0.00 0.00 0.00 0.00 0.00 0.00 0.00 0.00 0.00 0.00 0.00 0.00 0.00 0.00 0.00 0.00 0.00 0.00 0.00 0.00 0.00 0.00 0.00 0.00 0.00 0.00 0.01 0.00 0.00 0.00 0.00 0.00 0.00 0.00 0.00 0.00 0.00 0.01 0.02 0.00 0.01 0.01 0.02 0.01 0.00 0.00 0.00
0.00 0.00 0.00 0.00 0.00 0.00 0.00 0.00 0.00 0.00 0.00 0.00 0.00 0.00 0.00 0.00 0.00 0.00 0.00 0.00 0.00 0.00 0.00 0.00 0.00 0.00 0.00 0.01 0.00 0.00 0.00 0.00 0.00 0.00 0.00 0.00 0.00 0.00 0.01 0.02 0.01 0.00 0.00 0.01 0.00 0.00 0.00
0.00 0.00 0.00 0.00 0.00 0.00 0.00 0.00 0.00 0.00 0.00 0.00 0.00 0.00 0.00 0.00 0.00 0.00 0.00 0.00 0.00 0.00 0.00 0.00 0.00 0.00 0.00 0.00 0.00 0.00 0.01 0.01 0.00 0.00 0.00 0.00 0.00 0.00 0.00 0.02 0.03 0.01 0.01 0.00 0.00 0.00 0.00
0.00 0.00 0.00 0.00 0.00 0.00 0.00 0.00 0.00 0.00 0.00 0.00 0.00 0.00 0.00 0.00 0.00 0.00 0.00 0.00 0.00 0.00 0.00 0.00 0.01 0.02 0.02 0.00 0.00 0.01 0.01 0.01 0.00 0.00 0.00 0.01 0.00 0.00 0.00 0.00 0.02 0.01 0.00 0.00 0.00 0.00 0.00
0.00 0.00 0.00 0.00 0.00 0.00 0.00 0.00 0.00 0.00 0.00 0.00 0.00 0.00 0.00 0.00 0.00 0.00 0.00 0.00 0.00 0.00 0.00 0.00 0.00 0.02 0.01 0.00 0.00 0.01 0.01 0.01 0.00 0.00 0.00 0.00 0.01 0.00 0.00 0.01 0.02 0.02 0.01 0.00 0.00 0.00 0.00
0.00 0.00 0.00 0.00 0.00 0.00 0.00 0.00 0.00 0.00 0.00 0.00 0.00 0.00 0.00 0.00 0.00 0.00 0.00 0.00 0.00 0.00 0.00 0.00 0.00 0.00 0.01 0.01 0.00 0.00 0.01 0.01 0.00 0.01 0.00 0.00 0.00 0.00 0.00 0.00 0.00 0.01 0.01 0.01 0.00 0.00 0.00
0.00 0.00 0.00 0.00 0.00 0.01 0.00 0.00 0.00 0.00 0.00 0.00 0.00 0.00 0.00 0.00 0.00 0.00 0.00 0.00 0.00 0.00 0.00 0.00 0.00 0.00 0.01 0.00 0.00 0.00 0.00 0.00 0.00 0.00 0.01 0.00 0.00 0.00 0.00 0.00 0.00 0.00 0.00 0.01 0.03 0.01 0.00
0.00 0.00 0.00 0.00 0.00 0.01 0.01 0.00 0.00 0.00 0.00 0.00 0.00 0.00 0.00 0.00 0.00 0.00 0.00 0.00 0.00 0.00 0.00 0.00 0.00 0.00 0.00 0.00 0.00 0.00 0.00 0.00 0.00 0.00 0.00 0.00 0.00 0.01 0.00 0.00 0.00 0.00 0.00 0.00 0.01 0.03 0.01
0.00 0.00 0.00 0.00 0.00 0.01 0.01 0.00 0.01 0.01 0.00 0.00 0.00 0.00 0.00 0.00 0.00 0.00 0.00 0.00 0.00 0.00 0.00 0.00 0.00 0.00 0.00 0.00 0.00 0.00 0.00 0.00 0.00 0.00 0.00 0.00 0.00 0.00 0.00 0.00 0.00 0.00 0.00 0.00 0.00 0.00 0.00
0.00 0.00 0.00 0.00 0.00 0.00 0.01 0.00 0.00 0.00 0.00 0.00 0.01 0.01 0.01 0.00 0.00 0.00 0.00 0.00 0.00 0.00 0.00 0.00 0.00 0.00 0.00 0.00 0.00 0.00 0.00 0.00 0.00 0.00 0.00 0.00 0.00 0.00 0.00 0.00 0.00 0.00 0.00 0.00 0.00 0.00 0.00
0.00 0.00 0.01 0.01 0.01 0.00 0.01 0.00 0.00 0.00 0.01 0.01 0.01 0.01 0.03 0.00 0.00 0.00 0.00 0.00 0.00 0.00 0.00 0.00 0.00 0.00 0.00 0.00 0.00 0.00 0.00 0.00 0.00 0.00 0.01 0.00 0.00 0.00 0.00 0.00 0.00 0.00 0.00 0.00 0.00 0.00 0.00
0.00 0.01 0.01 0.01 0.01 0.01 0.00 0.01 0.01 0.00 0.01 0.02 0.02 0.02 0.02 0.00 0.00 0.00 0.00 0.00 0.00 0.00 0.00 0.00 0.00 0.00 0.00 0.00 0.00 0.00 0.00 0.00 0.00 0.00 0.00 0.00 0.00 0.00 0.00 0.00 0.00 0.00 0.00 0.00 0.00 0.00 0.00
0.00 0.01 0.01 0.01 0.02 0.01 0.01 0.01 0.01 0.01 0.01 0.01 0.01 0.03 0.02 0.01 0.00 0.00 0.00 0.00 0.00 0.00 0.00 0.00 0.00 0.00 0.00 0.00 0.00 0.00 0.00 0.00 0.00 0.00 0.00 0.00 0.00 0.00 0.00 0.00 0.00 0.00 0.00 0.00 0.00 0.00 0.00
0.00 0.00 0.01 0.01 0.02 0.02 0.01 0.01 0.01 0.01 0.01 0.02 0.01 0.02 0.04 0.02 0.00 0.00 0.00 0.00 0.00 0.00 0.00 0.00 0.00 0.00 0.00 0.00 0.01 0.00 0.00 0.00 0.00 0.00 0.00 0.00 0.00 0.00 0.00 0.00 0.00 0.00 0.00 0.00 0.00 0.00 0.00
0.00 0.00 0.00 0.01 0.02 0.02 0.01 0.02 0.02 0.01 0.01 0.02 0.01 0.01 0.03 0.02 0.00 0.00 0.00 0.01 0.00 0.00 0.00 0.00 0.00 0.00 0.00 0.00 0.01 0.00 0.00 0.00 0.00 0.00 0.00 0.00 0.00 0.00 0.00 0.00 0.00 0.00 0.00 0.00 0.00 0.00 0.00
0.00 0.00 0.00 0.00 0.02 0.02 0.01 0.02 0.02 0.01 0.01 0.02 0.01 0.01 0.03 0.02 0.00 0.00 0.00 0.00 0.00 0.00 0.00 0.00 0.00 0.00 0.00 0.00 0.01 0.01 0.01 0.00 0.00 0.00 0.00 0.00 0.00 0.00 0.00 0.00 0.00 0.00 0.00 0.00 0.00 0.00 0.00
0.00 0.00 0.00 0.01 0.01 0.01 0.01 0.01 0.01 0.01 0.01 0.01 0.01 0.01 0.03 0.02 0.00 0.00 0.00 0.00 0.00 0.00 0.00 0.00 0.00 0.00 0.01 0.01 0.01 0.00 0.01 0.01 0.00 0.00 0.00 0.00 0.00 0.00 0.00 0.00 0.00 0.00 0.00 0.00 0.00 0.00 0.00
MSLP
1022.48 1022.10 1021.74 1021.39 1021.04 1020.58 1020.10 1019.57 1019.04 1018.42 1017.70 1016.98 1016.34 1015.70 1015.11 1014.37 1013.48 1012.70 1012.02 1011.20 1010.61 1009.82 1009.12 1008.58 1008.15 1008.01 1007.84 1007.36 1006.02 1005.32 1004.43 1004.32 1004.79 1005.09 1004.49 1004.34 1003.72 1003.12 1001.72 1001.32 1001.50 1000.39 1000.07 1000.95 1000.82 1001.33 1001.06
1022.65 1022.29 1021.97 1021.66 1021.19 1020.82 1020.31 1019.69 1019.13 1018.45 1017.70 1016.99 1016.28 1015.49 1014.80 1014.03 1013.25 1012.40 1011.65 1010.82 1010.07 1009.41 1008.95 1008.17 1007.75 1007.69 1007.44 1006.43 1004.99 1004.48 1004.68 1004.52 1004.46 1004.37 1004.26 1003.67 1003.41 1003.01 1001.71 1000.55 1000.06 999.54 1000.43 999.85 1000.58 1000.63 1000.55
1022.89 1022.68 1022.25 1021.84 1021.36 1020.90 1020.31 1019.73 1019.13 1018.42 1017.70 1016.92 1016.16 1015.39 1014.49 1013.68 1012.74 1011.92 1011.08 1010.29 1009.31 1008.87 1008.32 1007.73 1007.32 1007.14 1006.58 1005.59 1004.81 1004.94 1005.20 1004.66 1004.35 1004.38 1003.80 1003.54 1003.69 1003.96 1002.15 1000.10 999.96 1000.04 1000.23 999.95 999.12 999.56 999.50
1023.15 1022.80 1022.43 1021.98 1021.48 1020.98 1020.43 1019.81 1019.20 1018.46 1017.69 1016.90 1015.97 1015.08 1014.21 1013.45 1012.67 1011.86 1010.95 1010.03 1008.73 1008.00 1007.52 1006.96 1006.36 1006.16 1005.59 1004.39 1004.43 1004.45 1004.02 1003.65 1003.62 1003.05 1002.66 1002.94 1002.99 1003.55 1002.64 1000.51 999.84 999.03 999.83 999.35 997.82 998.96 998.89
1023.39 1023.04 1022.62 1022.08 1021.61 1021.11 1020.50 1019.83 1019.21 1018.50 1017.70 1016.93 1016.03 1015.05 1014.14 1013.24 1012.18 1011.31 1010.46 1009.52 1008.15 1007.35 1006.77 1005.97 1005.45 1005.30 1004.36 1004.24 1004.05 1003.65 1003.27 1003.09 1002.94 1002.52 1002.13 1001.90 1002.44 1002.45 1002.04 999.86 999.69 998.76 997.83 998.28 998.30 998.11 998.28
1023.62 1023.22 1022.70 1022.16 1021.64 1021.10 1020.50 1019.87 1019.26 1018.58 1017.64 1016.70 1015.82 1015.04 1013.80 1012.86 1011.81 1010.92 1010.00 1009.13 1008.16 1006.59 1006.71 1005.02 1005.28 1005.09 1004.24 1004.06 1003.55 1002.56 1002.46 1002.71 1002.59 1001.95 1001.70 1001.21 1002.14 1001.59 1000.80 998.58 996.85 997.64 997.69 997.16 997.65 998.05 997.53
1023.78 1023.34 1022.85 1022.28 1021.76 1021.18 1020.58 1019.95 1019.33 1018.42 1017.56 1016.72 1015.79 1014.84 1013.67 1012.45 1011.42 1010.80 1010.10 1008.95 1008.55 1007.68 1008.10 1007.41 1006.59 1005.76 1004.39 1004.08 1003.21 1002.31 1002.19 1001.81 1001.50 1001.73 1000.84 1000.20 1000.84 999.53 999.83 998.22 997.01 997.14 996.75 996.12 996.45 996.62 997.12
1023.94 1023.38 1022.95 1022.50 1021.91 1021.30 1020.69 1019.99 1019.18 1018.37 1017.52 1016.69 1015.64 1014.58 1013.46 1012.39 1011.26 1010.86 1009.92 1009.75 1010.34 1010.81 1009.56 1007.01 1006.21 1005.06 1004.55 1003.60 1002.13 1002.04 1001.88 1002.04 1001.66 1000.99 1000.38 1000.14 998.87 999.34 999.02 997.92 997.69 996.79 996.17 995.56 995.75 995.81 995.80
1024.12 1023.54 1023.10 1022.52 1022.01 1021.33 1020.74 1019.95 1019.11 1018.36 1017.65 1016.73 1015.44 1014.33 1013.12 1011.83 1011.00 1010.68 1010.07 1010.37 1010.45 1010.70 1010.41 1007.04 1005.48 1004.57 1003.99 1003.50 1002.23 1001.53 1001.56 1001.70 1001.29 1000.84 999.96 999.25 997.86 997.80 998.37 998.00 997.93 996.27 994.96 995.48 995.47 995.21 995.34
1024.43 1023.85 1023.21 1022.67 1022.10 1021.31 1020.50 1019.84 1019.15 1018.37 1017.36 1016.31 1015.25 1013.95 1013.13 1012.28 1010.98 1010.53 1010.35 1010.16 1010.25 1010.70 1009.99 1006.86 1005.27 1004.44 1003.89 1003.05 1002.52 1001.54 1001.49 1001.71 1001.48 1001.30 1000.42 998.87 997.44 997.55 997.44 997.27 997.35 995.99 995.21 995.36 995.77 995.74 995.26
1024.66 1024.02 1023.36 1022.68 1022.07 1021.26 1020.57 1019.93 1019.24 1018.12 1017.20 1016.23 1015.08 1013.95 1012.72 1011.80 1011.42 1010.79 1010.75 1010.38 1010.68 1010.99 1009.42 1007.34 1005.86 1005.02 1004.42 1003.78 1002.90 1002.12 1002.07 1001.63 1001.66 1001.47 1001.67 999.59 998.34 997.42 996.97 996.76 997.71 995.72 996.07 995.81 995.64 996.36 996.57
1024.98 1024.38 1023.70 1022.95 1022.19 1021.54 1020.81 1019.97 1018.99 1017.94 1016.97 1015.84 1014.77 1013.59 1012.58 1011.59 1011.17 1010.68 1010.42 1010.33 1010.62 1010.44 1009.30 1007.70 1007.29 1005.92 1005.21 1004.14 1003.63 1002.71 1002.33 1002.53 1001.93 1001.63 1000.86 999.85 998.52 998.29 996.75 996.35 996.51 997.10 997.40 996.66 996.59 997.22 997.67
1025.34 1024.74 1024.07 1023.34 1022.65 1021.91 1020.89 1019.84 1018.83 1017.94 1016.67 1015.74 1014.56 1013.67 1012.56 1011.84 1011.74 1010.47 1009.68 1009.86 1010.42 1010.61 1010.61 1009.23 1008.23 1006.87 1005.64 1004.95 1004.28 1003.68 1003.37 1003.57 1003.92 1002.88 1001.64 1000.00 997.97 997.78 997.69 996.85 996.30 997.19 997.14 996.47 997.20 997.05 997.25
1025.56 1024.87 1024.20 1023.58 1022.91 1022.08 1021.15 1020.14 1019.06 1017.95 1016.89 1015.64 1014.52 1013.18 1012.60 1012.20 1011.37 1010.54 1010.06 1009.66 1010.74 1011.54 1011.38 1010.70 1009.12 1007.69 1006.90 1006.10 1005.51 1004.80 1004.44 1004.87 1005.19 1004.97 1003.73 1002.23 999.83 999.49 998.63 997.48 996.76 996.62 996.15 996.58 996.09 996.28 997.46
1025.70 1025.11 1024.44 1023.76 1023.14 1022.29 1021.45 1020.52 1019.34 1018.10 1017.05 1015.77 1014.28 1013.04 1012.44 1012.00 1011.32 1010.75 1010.59 1011.19 1012.27 1012.62 1012.30 1011.07 1009.51 1008.64 1008.07 1007.44 1006.94 1005.95 1005.70 1006.04 1006.08 1005.75 1005.60 1004.20 1001.62 999.91 999.09 998.38 997.27 997.28 997.38 997.26 997.40 996.44 996.66
1025.89 1025.30 1024.61 1023.80 1023.08 1022.24 1021.42 1020.55 1019.63 1018.40 1017.17 1015.88 1014.62 1013.40 1012.76 1011.91 1011.44 1011.09 1011.50 1012.33 1013.03 1012.81 1012.09 1011.57 1010.98 1010.52 1009.71 1008.77 1008.10 1007.24 1006.87 1006.67 1006.73 1006.49 1006.14 1005.17 1003.56 1000.75 999.41 998.56 998.08 997.81 997.30 997.92 997.94 996.62 996.59
1025.99 1025.37 1024.68 1023.93 1023.13 1022.38 1021.54 1020.68 1019.71 1018.81 1017.60 1016.11 1014.78 1014.00 1013.06 1012.00 1011.31 1011.77 1012.91 1013.79 1013.31 1012.92 1012.29 1011.89 1011.66 1011.43 1011.13 1010.53 1009.46 1008.64 1008.15 1007.27 1007.22 1006.72 1006.05 1005.63 1005.12 1001.92 1000.48 999.95 999.41 999.23 998.61 998.17 998.00 996.55 996.48
1026.16 1025.41 1024.70 1024.01 1023.28 1022.47 1021.62 1020.79 1019.90 1018.96 1017.86 1016.61 1015.86 1014.95 1013.25 1012.69 1012.65 1013.43 1014.06 1014.38 1013.65 1013.01 1012.82 1012.53 1012.18 1012.00 1011.80 1011.11 1009.95 1009.25 1008.88 1008.40 1007.89 1007.38 1006.39 1005.80 1005.35 1003.69 1001.72 1001.64 1001.01 1000.91 1000.64 999.20 998.10 997.54 998.09
1026.25 1025.52 1024.76 1024.07 1023.35 1022.58 1021.75 1021.05 1020.26 1019.26 1018.48 1017.81 1017.06 1016.03 1013.53 1013.13 1013.95 1014.76 1014.90 1014.36 1013.78 1012.97 1013.01 1012.90 1012.65 1012.46 1012.11 1011.49 1010.75 1009.78 1009.31 1008.46 1008.16 1007.56 1007.04 1006.51 1005.56 1004.32 1002.89 1002.78 1002.94 1002.99 1003.61 1002.12 999.31 998.87 999.30
1026.18 1025.52 1024.85 1024.13 1023.41 1022.66 1021.93 1021.25 1020.53 1019.70 1018.77 1018.40 1017.87 1016.63 1015.15 1014.76 1015.66 1015.68 1015.23 1014.67 1014.16 1013.56 1013.34 1013.12 1012.85 1012.44 1011.99 1011.50 1011.07 1009.98 1009.75 1008.87 1008.44 1007.96 1007.42 1007.15 1006.61 1006.27 1006.11 1006.97 1006.98 1006.84 1006.33 1004.03 1002.06 1002.75 1002.46
1026.10 1025.37 1024.76 1024.18 1023.52 1022.78 1022.19 1021.60 1020.88 1020.00 1018.97 1018.37 1018.63 1018.66 1018.15 1016.93 1016.22 1015.93 1015.45 1015.30 1014.54 1014.16 1013.81 1013.10 1012.71 1012.73 1012.33 1011.51 1010.70 1010.34 1009.83 1009.44 1008.63 1007.92 1008.06 1008.05 1007.38 1006.69 1007.41 1007.95 1008.80 1009.46 1009.02 1008.25 1007.00 1008.12 1007.12
1026.02 1025.31 1024.59 1023.98 1023.43 1022.82 1022.26 1021.62 1020.93 1020.23 1019.50 1018.97 1019.62 1019.81 1018.97 1018.08 1016.86 1016.07 1015.38 1015.50 1015.28 1014.79 1014.57 1013.46 1013.18 1012.49 1012.08 1011.77 1011.54 1010.64 1010.28 1009.73 1009.43 1008.74 1008.58 1008.43 1008.02 1007.81 1008.38 1008.97 1008.92 1010.38 1011.37 1011.47 1011.29 1011.83 1011.65
1025.92 1025.27 1024.53 1023.89 1023.39 1022.90 1022.26 1021.62 1021.01 1020.47 1020.03 1019.80 1019.79 1019.85 1019.70 1018.27 1017.28 1016.57 1016.05 1015.92 1015.51 1015.40 1014.13 1013.47 1013.02 1012.43 1011.72 1010.98 1010.50 1009.75 1009.55 1009.51 1009.82 1010.10 1009.72 1009.40 1009.18 1008.47 1008.59 1009.00 1009.53 1011.50 1013.66 1014.10 1014.99 1016.02 1016.07
1025.60 1025.03 1024.39 1023.72 1023.10 1022.63 1022.23 1021.63 1021.11 1020.64 1020.41 1020.43 1019.96 1019.74 1019.58 1018.24 1017.40 1016.72 1016.50 1015.92 1015.67 1015.22 1014.37 1013.31 1012.83 1012.37 1011.42 1010.47 1009.41 1008.11 1008.13 1008.94 1009.82 1010.31 1010.21 1010.19 1009.65 1008.99 1008.91 1009.73 1012.40 1015.68 1016.36 1016.40 1016.87 1017.71 1017.66
1025.20 1024.70 1024.19 1023.51 1022.85 1022.37 1021.96 1021.47 1020.98 1020.49 1020.05 1019.95 1019.79 1019.76 1019.40 1018.28 1017.37 1016.62 1016.27 1015.80 1015.33 1014.75 1014.23 1013.31 1012.69 1012.34 1011.43 1010.61 1009.83 1009.17 1008.81 1009.63 1010.16 1010.44 1010.86 1010.96 1010.80 1010.45 1010.35 1012.28 1014.84 1016.07 1017.00 1018.04 1018.33 1019.18 1019.27
1024.78 1024.28 1023.77 1023.23 1022.56 1022.06 1021.58 1021.08 1020.67 1020.20 1019.76 1019.48 1019.46 1019.42 1019.45 1018.62 1016.44 1016.12 1016.26 1015.83 1015.67 1015.15 1014.31 1013.58 1012.65 1012.12 1011.66 1011.29 1010.90 1010.90 1011.02 1011.34 1011.38 1011.57 1011.78 1012.05 1011.91 1012.05 1012.21 1013.71 1016.49 1018.30 1018.37 1018.47 1018.57 1019.69 1020.28
1024.14 1023.69 1023.28 1022.70 1022.01 1021.52 1021.02 1020.60 1020.24 1019.81 1019.47 1019.32 1018.83 1018.69 1018.63 1018.01 1016.57 1016.22 1016.16 1016.25 1015.88 1015.73 1015.28 1014.22 1013.76 1012.90 1012.55 1012.65 1012.25 1012.10 1012.18 1012.48 1013.32 1014.21 1014.38 1014.15 1014.28 1014.53 1014.89 1016.11 1018.31 1019.41 1018.78 1018.68 1019.78 1021.50 1020.73
1023.71 1023.16 1022.71 1022.09 1021.43 1020.89 1020.42 1020.16 1019.73 1019.38 1018.91 1018.69 1018.25 1018.25 1018.53 1017.62 1016.57 1016.03 1016.01 1015.74 1015.98 1015.99 1015.75 1015.15 1014.52 1013.82 1013.87 1013.96 1013.85 1014.00 1013.67 1013.84 1014.70 1016.21 1016.92 1017.52 1018.03 1017.88 1017.70 1018.21 1019.85 1019.98 1019.46 1020.41 1021.99 1021.28 1020.85
1023.26 1022.67 1022.14 1021.51 1020.92 1020.31 1019.77 1019.40 1019.06 1018.74 1018.41 1018.19 1017.95 1017.87 1017.32 1017.31 1016.37 1015.91 1015.39 1015.28 1015.25 1015.41 1015.97 1015.66 1015.38 1015.11 1015.21 1015.36 1015.20 1015.34 1015.08 1014.86 1015.26 1016.95 1017.93 1019.07 1019.85 1020.28 1020.08 1020.50 1020.80 1020.94 1021.32 1021.96 1022.20 1022.12 1021.73
Thickness
5603 5602 5600 5598 5597 5597 5595 5593 5592 5590 5586 5583 5578 5572 5566 5561 5556 5549 5541 5533 5523 5516 5511 5503 5494 5481 5470 5460 5464 5465 5472 5471 5472 5475 5485 5493 5507 5520 5526 5555 5567 5572 5597 5596 5610 5611 5619
5600 5597 5595 5594 5594 5591 5589 5588 5585 5583 5579 5575 5571 5565 5558 5551 5544 5537 5529 5521 5510 5501 5490 5483 5469 5454 5443 5435 5445 5445 5444 5447 5443 5447 5459 5476 5490 5506 5526 5544 5550 5580 5581 5594 5596 5602 5613
5595 5592 5591 5590 5588 5586 5585 5582 5580 5577 5574 5569 5563 5556 5550 5543 5536 5527 5519 5510 5500 5487 5474 5460 5446 5433 5423 5417 5419 5412 5408 5412 5420 5419 5433 5452 5464 5461 5503 5536 5552 5557 5563 5578 5595 5599 5607
5591 5589 5587 5585 5583 5581 5578 5576 5573 5570 5566 5562 5557 5549 5541 5532 5522 5513 5504 5496 5489 5478 5460 5444 5433 5420 5403 5409 5399 5393 5395 5397 5399 5410 5422 5431 5449 5449 5463 5525 5538 5551 5552 5555 5589 5593 5605
5587 5585 5583 5581 5579 5575 5573 5571 5567 5563 5560 5554 5546 5538 5528 5519 5513 5505 5495 5486 5477 5465 5449 5434 5424 5405 5403 5396 5388 5386 5386 5385 5386 5395 5407 5426 5432 5440 5458 5511 5521 5531 5545 5552 5565 5588 5596
5583 5581 5579 5577 5574 5572 5569 5565 5561 5557 5553 5547 5538 5526 5520 5510 5504 5496 5488 5477 5459 5451 5434 5430 5412 5400 5401 5386 5384 5388 5387 5382 5379 5390 5394 5412 5409 5430 5450 5500 5519 5529 5532 5564 5561 5571 5588
5579 5576 5575 5572 5570 5567 5563 5559 5556 5552 5546 5538 5528 5517 5509 5503 5496 5486 5477 5475 5461 5440 5406 5394 5384 5379 5385 5382 5382 5384 5381 5386 5386 5383 5397 5415 5408 5433 5450 5486 5537 5540 5548 5558 5569 5585 5579
5574 5573 5571 5568 5566 5562 5558 5554 5550 5545 5537 5528 5519 5509 5501 5492 5486 5472 5463 5443 5417 5396 5379 5389 5387 5387 5381 5380 5381 5379 5379 5373 5376 5380 5397 5395 5407 5442 5464 5490 5497 5529 5538 5554 5570 5581 5582
5570 5569 5567 5566 5561 5557 5552 5548 5543 5536 5526 5516 5511 5502 5497 5489 5478 5464 5451 5430 5408 5389 5369 5388 5390 5385 5381 5375 5376 5378 5376 5373 5374 5376 5390 5394 5434 5458 5450 5469 5480 5511 5539 5550 5559 5579 5586
5566 5566 5564 5561 5556 5553 5548 5543 5535 5526 5520 5513 5505 5499 5489 5482 5478 5462 5440 5425 5406 5384 5373 5397 5388 5380 5375 5378 5370 5378 5373 5370 5370 5361 5372 5397 5438 5440 5458 5459 5476 5504 5538 5553 5554 5557 5555
5564 5562 5559 5556 5551 5547 5542 5534 5525 5520 5513 5505 5499 5492 5482 5473 5465 5452 5435 5420 5401 5378 5369 5389 5382 5378 5373 5368 5367 5367 5363 5368 5360 5367 5361 5391 5405 5437 5450 5466 5478 5500 5526 5540 5548 5549 5540
5558 5555 5552 5548 5544 5539 5533 5526 5521 5516 5509 5502 5496 5490 5481 5469 5455 5445 5430 5414 5397 5393 5353 5380 5369 5363 5358 5364 5359 5363 5361 5361 5370 5366 5381 5389 5413 5409 5447 5478 5490 5503 5485 5516 5534 5529 5502
5551 5548 5544 5540 5536 5531 5527 5523 5519 5511 5506 5497 5491 5482 5475 5464 5453 5447 5435 5419 5405 5365 5380 5365 5351 5356 5361 5354 5353 5355 5354 5339 5332 5336 5350 5387 5428 5426 5439 5461 5484 5481 5485 5512 5508 5502 5511
5546 5542 5538 5533 5529 5524 5520 5516 5511 5505 5498 5493 5485 5481 5469 5456 5448 5440 5431 5427 5377 5375 5360 5363 5357 5359 5352 5351 5347 5348 5352 5335 5339 5336 5331 5344 5393 5390 5409 5437 5464 5472 5494 5486 5510 5508 5505
5540 5535 5531 5527 5522 5518 5513 5509 5504 5498 5491 5487 5483 5478 5467 5456 5445 5435 5426 5385 5371 5356 5350 5349 5359 5352 5345 5347 5340 5344 5345 5329 5333 5335 5322 5331 5372 5401 5413 5424 5452 5466 5463 5494 5508 5530 5526
5534 5529 5525 5523 5519 5514 5509 5504 5497 5491 5486 5481 5477 5473 5463 5453 5441 5434 5412 5389 5370 5370 5363 5354 5338 5335 5324 5331 5328 5334 5337 5338 5333 5339 5335 5343 5347 5400 5418 5429 5442 5455 5494 5477 5478 5514 5525
5528 5524 5520 5518 5513 5509 5504 5498 5492 5484 5478 5476 5472 5460 5454 5449 5445 5428 5391 5367 5372 5370 5365 5352 5341 5335 5331 5322 5327 5330 5335 5346 5340 5338 5349 5344 5343 5384 5414 5423 5433 5448 5468 5491 5497 5518 5531
5523 5520 5516 5511 5507 5504 5499 5492 5485 5478 5474 5470 5460 5446 5455 5445 5425 5407 5383 5371 5379 5373 5362 5354 5349 5340 5329 5329 5328 5337 5329 5330 5338 5338 5341 5352 5344 5358 5397 5405 5413 5411 5423 5481 5491 5500 5517
5517 5514 5510 5506 5502 5497 5492 5484 5477 5470 5461 5454 5442 5436 5446 5438 5412 5395 5384 5380 5376 5373 5360 5350 5344 5342 5338 5332 5327 5337 5337 5347 5342 5340 5338 5347 5356 5363 5392 5400 5394 5398 5380 5403 5488 5514 5512
5512 5509 5504 5500 5496 5491 5484 5477 5470 5462 5453 5443 5430 5428 5430 5421 5402 5388 5379 5380 5374 5375 5359 5353 5347 5347 5342 5335 5342 5339 5333 5343 5343 5344 5353 5343 5350 5356 5365 5343 5352 5356 5362 5391 5467 5481 5504
5507 5503 5499 5493 5489 5484 5475 5467 5461 5455 5447 5438 5421 5407 5398 5391 5394 5388 5386 5373 5369 5362 5361 5358 5348 5342 5334 5332 5339 5335 5339 5339 5349 5351 5339 5337 5343 5356 5346 5345 5335 5330 5340 5348 5378 5360 5420
5502 5498 5494 5489 5484 5477 5470 5462 5455 5448 5439 5429 5406 5393 5393 5381 5391 5388 5387 5370 5360 5350 5345 5348 5342 5342 5341 5330 5332 5328 5332 5335 5337 5338 5337 5336 5350 5353 5341 5333 5346 5326 5325 5334 5329 5328 5347
5497 5493 5489 5485 5478 5471 5464 5457 5448 5439 5429 5417 5407 5396 5379 5383 5386 5381 5375 5363 5358 5350 5352 5355 5349 5342 5338 5345 5347 5348 5346 5341 5326 5327 5328 5324 5330 5344 5353 5349 5358 5330 5298 5308 5303 5293 5305
5494 5490 5485 5480 5475 5468 5458 5451 5441 5431 5421 5406 5398 5390 5376 5376 5383 5378 5365 5363 5353 5349 5349 5354 5349 5341 5349 5352 5355 5367 5363 5338 5328 5327 5330 5319 5327 5353 5355 5350 5319 5273 5281 5292 5291 5281 5284
5492 5487 5481 5477 5471 5465 5456 5446 5437 5428 5420 5407 5394 5384 5375 5373 5379 5377 5366 5363 5354 5352 5348 5350 5351 5344 5347 5347 5349 5349 5347 5339 5344 5342 5325 5316 5322 5337 5353 5308 5289 5290 5277 5268 5275 5271 5270
5491 5485 5480 5473 5467 5461 5452 5444 5435 5425 5416 5407 5392 5383 5371 5368 5376 5372 5359 5356 5347 5341 5340 5347 5349 5345 5344 5341 5341 5311 5323 5317 5319 5322 5326 5323 5314 5314 5327 5336 5296 5258 5261 5265 5272 5281 5256
5491 5485 5477 5471 5466 5460 5451 5443 5432 5423 5413 5404 5394 5385 5375 5370 5373 5369 5355 5346 5342 5334 5328 5335 5333 5336 5335 5327 5325 5321 5308 5334 5297 5283 5273 5289 5277 5289 5300 5291 5256 5236 5258 5263 5281 5252 5246
5488 5483 5476 5470 5465 5459 5450 5440 5430 5422 5413 5406 5396 5385 5372 5369 5367 5364 5354 5348 5334 5326 5320 5322 5321 5326 5320 5302 5310 5309 5310 5293 5296 5261 5241 5245 5235 5252 5260 5261 5272 5238 5251 5241 5226 5236 5242
5485 5481 5474 5468 5462 5456 5448 5439 5430 5421 5413 5403 5394 5382 5377 5366 5362 5359 5354 5346 5339 5329 5314 5315 5313 5310 5299 5287 5290 5284 5288 5296 5277 5286 5255 5242 5220 5216 5214 5216 5223 5221 5217 5219 5220 5221 5227